Location: Newark
(53.3333°N, 83.7500°E)
Time: 07:07:52
(UTC+00:00)

Tiros 1 - Visible Passes

Search period start: 18 November 2019 00:00
Search period end: 28 November 2019 00:00
Orbit: 630 x 664 km, 48.4° (Epoch: 17 November)

Date Brightness Start Highest point End Pass type
(mag) Time Alt. Az. Time Alt. Az. Time Alt. Az.
18 Nov 7.9 11:43:44 10° WSW 11:48:10 46° S 11:52:03 13° ESE visible
18 Nov 8.3 13:25:40 10° W 13:29:43 34° SSW 13:29:43 34° SSW visible
19 Nov 8.0 12:09:38 10° W 12:14:03 43° S 12:17:04 19° SE visible
19 Nov 9.1 13:51:52 10° W 13:54:44 22° SW 13:54:44 22° SW visible
20 Nov 8.0 10:53:44 10° WSW 10:58:10 46° S 11:02:37 10° ESE visible
20 Nov 8.4 12:35:39 10° W 12:39:52 35° SSW 12:42:10 22° SSE visible
20 Nov 9.8 14:18:36 10° WSW 14:19:50 13° SW 14:19:50 13° SW visible
21 Nov 8.1 11:19:38 10° W 11:24:02 44° S 11:28:28 10° ESE visible
21 Nov 8.9 13:01:49 10° W 13:05:35 25° SSW 13:07:21 20° S visible
22 Nov 8.5 11:45:38 10° W 11:49:52 36° SSW 11:54:07 10° SE visible
22 Nov 9.5 13:28:28 10° WSW 13:31:11 15° SW 13:32:42 13° SSW visible
23 Nov 9.1 12:11:48 10° W 12:15:36 26° SSW 12:19:26 10° SSE visible
24 Nov 8.6 10:55:37 10° W 10:59:52 37° SSW 11:04:08 10° SE visible
24 Nov 9.7 12:38:21 10° WSW 12:41:12 16° SW 12:44:04 10° S visible
25 Nov 9.2 11:21:45 10° W 11:25:37 27° SSW 11:29:30 10° SSE visible
26 Nov 9.8 11:48:15 10° WSW 11:51:14 17° SW 11:54:14 10° S visible
